Weather History for Sault Ste Marie, MI

Change the Weather History Date:

Monday, August 22, 2011

  Actual Average Record
Temperature  
Mean Temperature 62 °F 64 °F  
Max Temperature 70 °F 74 °F 85 °F (1947)
Min Temperature 53 °F 54 °F 32 °F (1950)
Degree Days  
Heating Degree Days 3 3  
Month to date heating degree days 13 46  
Since 1 June heating degree days 174 295  
Since 1 July heating degree days 26 115  
Cooling Degree Days 0 2  
Month to date cooling degree days 62 55  
Year to date cooling degree days 212 168  
Since 1 June cooling degree days 204 163  
Growing Degree Days 12 (Base 50)    
Moisture  
Dew Point 50 °F    
Average Humidity 68    
Maximum Humidity 93    
Minimum Humidity 42    
Precipitation  
Precipitation 0.00 in 0.10 in 2.19 in (1968)
Month to date precipitation 3.93 2.23  
Year to date precipitation 22.90 18.23  
Sea Level Pressure  
Sea Level Pressure 29.96 in    
Wind  
Wind Speed 6 mph (WNW)    
Max Wind Speed 15 mph    
Max Gust Speed 22 mph    
Visibility 10 miles    
Events      
T = Trace of Precipitation, MM = Missing Value Source: NWS Daily Summary

Daily Weather History Graph

Daily Weather History Graph

Search for Another Location

Airport:

Trip Planner

Search our weather history database for the weather conditions in past years. The results will help you decide how hot, cold, wet, or windy it might be!

Date:

Astronomy

Aug. 22, 2011 Rise Set
Actual Time 6:44 AM EDT 8:35 PM EDT
Civil Twilight 6:12 AM EDT 9:07 PM EDT
Nautical Twilight 5:32 AM EDT 9:46 PM EDT
Astronomical Twilight 4:49 AM EDT 10:29 PM EDT
Moon No Moon Rise 3:50 PM EDT (8/22)
Length of Visible Light 14h 55m
Length of Day
13h 50m
Last Quarter, 43% of the Moon is Illuminated
Aug 22
Last Quarter
Aug 28
New
Sep 4
First Quarter
Sep 12
Full
Sep 20
Last Quarter

Hourly Weather History & Observations

Time (EDT) Temp. Dew Point Humidity Pressure Visibility Wind Dir Wind Speed Gust Speed Precip Events Conditions
12:55 AM 57.0 °F 52.0 °F 83% 29.96 in 10.0 mi WNW 4.6 mph - N/A   Clear
1:55 AM 55.9 °F 51.1 °F 84% 29.95 in 10.0 mi West 4.6 mph - N/A   Clear
2:55 AM 55.0 °F 50.0 °F 83% 29.96 in 10.0 mi West 4.6 mph - N/A   Clear
3:55 AM 55.0 °F 51.1 °F 86% 29.97 in 10.0 mi West 3.5 mph - N/A   Clear
4:55 AM 54.0 °F 50.0 °F 86% 29.98 in 10.0 mi West 5.8 mph - N/A   Clear
5:55 AM 55.0 °F 51.1 °F 86% 29.98 in 10.0 mi West 4.6 mph - N/A   Clear
6:55 AM 54.0 °F 51.1 °F 90% 29.99 in 10.0 mi WSW 3.5 mph - N/A   Clear
7:55 AM 57.0 °F 53.1 °F 87% 29.99 in 10.0 mi WSW 5.8 mph - N/A   Clear
8:55 AM 60.1 °F 55.0 °F 83% 30.00 in 10.0 mi WSW 4.6 mph - N/A   Clear
9:55 AM 63.0 °F 55.0 °F 75% 29.99 in 10.0 mi WSW 8.1 mph - N/A   Partly Cloudy
10:55 AM 64.9 °F 55.0 °F 70% 30.00 in 10.0 mi West 10.4 mph - N/A   Partly Cloudy
11:55 AM 66.9 °F 51.1 °F 57% 29.99 in 10.0 mi WNW 11.5 mph - N/A   Partly Cloudy
12:55 PM 66.9 °F 50.0 °F 54% 29.98 in 10.0 mi West 9.2 mph 17.3 mph N/A   Partly Cloudy
1:55 PM 66.0 °F 46.9 °F 50% 29.97 in 10.0 mi WNW 10.4 mph 17.3 mph N/A   Clear
2:55 PM 66.9 °F 48.0 °F 51% 29.96 in 10.0 mi WNW 11.5 mph 18.4 mph N/A   Clear
3:55 PM 68.0 °F 50.0 °F 52% 29.96 in 10.0 mi NW 9.2 mph 18.4 mph N/A   Clear
4:55 PM 69.1 °F 46.9 °F 45% 29.95 in 10.0 mi NW 11.5 mph 18.4 mph N/A   Clear
5:55 PM 68.0 °F 46.0 °F 45% 29.95 in 10.0 mi WNW 10.4 mph - N/A   Clear
6:55 PM 68.0 °F 45.0 °F 43% 29.94 in 10.0 mi NW 8.1 mph - N/A   Clear
7:55 PM 64.0 °F 44.1 °F 48% 29.93 in 10.0 mi NW 3.5 mph - N/A   Clear
8:55 PM 62.1 °F 46.9 °F 58% 29.92 in 10.0 mi Calm Calm - N/A   Overcast
9:55 PM 61.0 °F 51.1 °F 70% 29.93 in 10.0 mi Calm Calm - N/A   Overcast
10:55 PM 61.0 °F 48.9 °F 64% 29.93 in 10.0 mi Calm Calm - N/A   Overcast
11:55 PM 59.0 °F 50.0 °F 72% 29.92 in 10.0 mi Calm Calm - N/A   Mostly Cloudy